This demonstration page uses our WeatherBlox Daily Observations layout. Learn more.

Left ArrowRight Arrow

39.12711, -84.51439

Hourly Observations for August 1, 2018

Temp ( °F °C ) Dew Point ( °F °C ) Humidity (%) Winds ( mph kmh ) Pressure ( in mb ) Visibility ( mi km ) Precip ( " mm )
12:53 am 00:53 Clear 70 21.1 67 19.4 90 90 SW 6 9 29.93 1014 10 16 N/A
1:45 am 01:45 Mostly Cloudy 70 21.1 68 20 93 93 N N/A 29.91 1013 10 16 N/A
1:53 am 01:53 Mostly Cloudy 69 20.6 68 20 96 96 N N/A 29.93 1014 10 16 N/A
2:13 am 02:13 Partly Cloudy 69 20.6 67 19.4 93 93 N N/A 29.91 1013 10 16 N/A
2:53 am 02:53 Clear 68 20 67 19.4 96 96 N N/A 29.92 1013 10 16 N/A
3:53 am 03:53 Clear 66 18.9 66 18.9 100 100 SSW 5 7 29.93 1014 10 16 N/A
4:53 am 04:53 Mostly Cloudy 68 20 67 19.4 96 96 S 3 6 29.95 1014 10 16 N/A
5:14 am 05:14 Partly Cloudy 67 19.4 67 19.4 100 100 SSW 5 7 29.94 1014 10 16 N/A
5:28 am 05:28 Mostly Cloudy 67 19.4 67 19.4 100 100 SSW 6 9 29.94 1014 10 16 N/A
5:53 am 05:53 Mostly Cloudy 67 19.4 67 19.4 100 100 SSW 7 11 29.96 1014 10 16 N/A
6:04 am 06:04 Partly Cloudy 67 19.4 67 19.4 100 100 SSW 7 11 29.94 1014 10 16 N/A
6:37 am 06:37 Mostly Cloudy 68 20 67 19.4 96 96 SW 6 9 29.94 1014 10 16 N/A
6:53 am 06:53 Cloudy 69 20.6 67 19.4 93 93 SW 6 9 29.97 1015 10 16 N/A
7:53 am 07:53 Cloudy 69 20.6 68 20 96 96 N N/A 29.97 1015 10 16 N/A
8:53 am 08:53 Cloudy 69 20.6 68 20 96 96 S 5 7 30.01 1016 10 16 N/A
9:53 am 09:53 Mostly Cloudy 70 21.1 68 20 93 93 SW 5 7 30.01 1016 10 16 N/A
10:45 am 10:45 Mostly Cloudy 72 22.2 67 19.4 84 84 S 3 6 30.00 1016 10 16 N/A
10:53 am 10:53 Mostly Cloudy 72 22.2 67 19.4 84 84 WSW 3 6 30.00 1016 10 16 N/A
11:53 am 11:53 Cloudy 73 22.8 67 19.4 81 81 N N/A 30.01 1016 10 16 N/A
12:53 pm 12:53 Cloudy 74 23.3 67 19.4 79 79 SW 5 7 30.01 1016 10 16 N/A
1:53 pm 13:53 Cloudy 76 24.4 68 20 77 77 WSW 5 7 30.01 1016 10 16 N/A
2:00 pm 14:00 Mostly Cloudy 75 23.9 67 19.4 76 76 N N/A 30.00 1016 10 16 N/A
2:53 pm 14:53 Cloudy 77 25 67 19.4 71 71 WSW 3 6 30.00 1016 9 14 N/A
3:00 pm 15:00 Mostly Cloudy 77 25 67 19.4 71 71 WSW 3 6 29.97 1015 9 14 N/A
3:53 pm 15:53 Mostly Cloudy 78 25.6 67 19.4 69 69 N N/A 29.99 1016 10 16 N/A
4:53 pm 16:53 Cloudy 78 25.6 67 19.4 69 69 NE 3 6 29.98 1015 10 16 N/A
5:53 pm 17:53 Cloudy 74 23.3 68 20 82 82 SSE 8 13 30.00 1016 10 16 N/A
6:53 pm 18:53 Mostly Cloudy 73 22.8 70 21.1 90 90 S 6 9 29.99 1016 10 16 0.01 0.25
7:53 pm 19:53 Mostly Cloudy 73 22.8 70 21.1 90 90 SW 3 6 30.00 1016 10 16 N/A
8:53 pm 20:53 Clear 71 21.7 69 20.6 94 94 N N/A 30.00 1016 10 16 N/A
9:53 pm 21:53 Mostly Clear 70 21.1 69 20.6 97 97 N N/A 30.02 1017 10 16 N/A
10:53 pm 22:53 Mostly Clear 69 20.6 69 20.6 100 100 N N/A 30.03 1017 7 11 N/A
11:53 pm 23:53 Clear with Mist and Fog 69 20.6 69 20.6 100 100 N N/A 30.03 1017 5 8 N/A

Powered by AerisWeather